Flag for U.S.A. Weather past 2 weeks in Decatur, Illinois, U.S.A.

Now
33 °F

Overcast.


Feels Like: 24 °F
Forecast: 23 / 35 °F
Wind: 13 mph from Northwest

Location: Decatur Airport

Current Time: Dec 27, 2014 at 10:40:12 PM

Latest Report: Dec 27, 2014 at 9:54 PM


Visibility: 10 mi

Pressure: 30.18 "Hg

Humidity: 78%

Dew point: 27 °F

Location of DecaturLocation

Historic Weather in Decatur — Graph

°F

Decatur temperature yesterday

Maximum temperature yesterday: 54 °F (at 2:54 PM)
Minimum temperature yesterday: 37 °F (at 12:54 AM)
Average temperature yesterday: 45 °F

Past Weeks' High & Low Weather Summary

 TemperatureHumidityPressure
High54 °F (Dec 26, 2:54 PM)100% (Dec 22, 10:54 AM)30.36 "Hg (Dec 22, 10:54 AM)
Low19 °F (Dec 19, 6:54 AM)59% (Dec 19, 2:54 PM)29.55 "Hg (Dec 22, 11:54 PM)
Average38 °F85%30.06 "Hg
* Reported Dec 12 8:54 PM — Dec 27 8:54 PM, Decatur, Weather by CustomWeather, © 2014

Note: Actual official high and low records may vary slightly from our data, if they occured in-between our weather recording intervals... More about our weather records

Advertising

Decatur weather history for previous 24 hours

 ConditionsComfort  
Time TempWeatherWind HumidityBarometerVisibility
8:54 PM
Dec 27
33 °FClear.10 mph82%30.18 "Hg10 mi
7:54 PM34 °FPassing clouds.14 mph85%30.17 "Hg10 mi
6:54 PM35 °FPassing clouds.9 mph88%30.16 "Hg10 mi
5:54 PM35 °FLight snow. Fog.8 mph92%30.17 "Hg4 mi
4:54 PM36 °FLight rain. Low clouds.10 mph92%30.14 "Hg7 mi
4:04 PM37 °FLight rain. Fog.9 mph89%30.14 "Hg5 mi
3:54 PM37 °FLight rain. Mostly cloudy.9 mph89%30.14 "Hg7 mi
2:54 PM39 °FLight rain. More clouds than sun.10 mph86%30.12 "Hg8 mi
1:54 PM40 °FLight rain. Mostly cloudy.16 mph83%30.14 "Hg10 mi
12:54 PM42 °FOvercast.14 mph82%30.10 "Hg10 mi
11:54 AM44 °FLow clouds.17 mph89%30.11 "Hg8 mi
10:54 AM49 °FLow clouds.12 mph93%30.11 "Hg8 mi
10:01 AM48 °FFog.13 mph96%30.11 "Hg5 mi
8:54 AM48 °FMostly cloudy.15 mph93%30.09 "Hg8 mi
7:54 AM47 °FFog.14 mph93%30.06 "Hg6 mi
6:54 AM47 °FLow clouds.13 mph93%30.07 "Hg7 mi
5:54 AM47 °FLow clouds.15 mph93%30.07 "Hg8 mi
4:54 AM47 °FLow clouds.17 mph93%30.04 "Hg10 mi
3:54 AM46 °FLow clouds.17 mph93%30.04 "Hg10 mi
2:54 AM46 °FLow clouds.16 mph93%30.05 "Hg10 mi
1:54 AM46 °FLow clouds.14 mph93%30.06 "Hg9 mi
1:01 AM46 °FLight rain. Fog.15 mph89%30.06 "Hg5 mi
11:54 PM
Dec 26
48 °FLight rain. Overcast.12 mph83%30.07 "Hg5 mi
10:54 PM49 °FOvercast.14 mph80%30.06 "Hg10 mi
Weather by CustomWeather, © 2014

See weather overviewHow to use our weather pages